TimeEDT,TemperatureF,Dew PointF,Humidity,Sea Level PressureIn,VisibilityMPH,Wind Direction,Wind SpeedMPH,Gust SpeedMPH,PrecipitationIn,Events,Conditions,WindDirDegrees,DateUTC
12:54 AM,12.0,1.9,64,29.85,10.0,NNW,5.8,-,N/A,,Clear,330,2013-03-17 04:54:00
1:54 AM,12.0,1.9,64,29.85,10.0,NNW,9.2,-,N/A,,Clear,330,2013-03-17 05:54:00
2:54 AM,10.0,1.0,67,29.84,10.0,WNW,3.5,-,N/A,,Clear,290,2013-03-17 06:54:00
3:54 AM,6.1,-0.0,76,29.85,10.0,West,3.5,-,N/A,,Clear,260,2013-03-17 07:54:00
4:54 AM,6.1,-0.0,76,29.85,10.0,West,3.5,-,N/A,,Clear,280,2013-03-17 08:54:00
5:54 AM,7.0,-0.9,70,29.86,10.0,WSW,3.5,-,N/A,,Clear,250,2013-03-17 09:54:00
6:54 AM,5.0,-0.9,76,29.86,10.0,WSW,3.5,-,N/A,,Partly Cloudy,240,2013-03-17 10:54:00
7:54 AM,9.0,1.9,73,29.85,10.0,Calm,Calm,-,N/A,,Clear,0,2013-03-17 11:54:00
8:54 AM,12.0,3.0,67,29.85,10.0,Calm,Calm,-,N/A,,Overcast,0,2013-03-17 12:54:00
9:31 AM,12.2,3.2,67,29.81,2.5,Calm,Calm,-,0.00,Snow,Light Snow,0,2013-03-17 13:31:00
9:36 AM,12.2,5.0,73,29.81,1.2,WSW,3.5,-,0.00,Snow,Light Snow,240,2013-03-17 13:36:00
9:52 AM,12.2,6.8,79,29.80,0.8,Calm,Calm,-,0.01,Snow,Light Snow,0,2013-03-17 13:52:00
9:54 AM,12.0,7.0,80,29.84,0.8,Calm,Calm,-,0.01,Snow,Light Snow,0,2013-03-17 13:54:00
10:32 AM,12.2,8.6,85,29.80,0.5,SW,4.6,-,0.01,Snow,Snow,220,2013-03-17 14:32:00
10:39 AM,12.2,8.6,85,29.80,1.0,SW,4.6,-,0.01,Snow,Light Snow,230,2013-03-17 14:39:00
10:50 AM,14.0,8.6,79,29.79,0.8,SW,4.6,-,0.01,Snow,Light Snow,220,2013-03-17 14:50:00
10:54 AM,14.0,9.0,80,29.85,0.5,WSW,5.8,-,0.01,Snow,Snow,240,2013-03-17 14:54:00
11:22 AM,15.8,8.6,73,29.80,1.0,Variable,6.9,-,0.01,Snow,Light Snow,0,2013-03-17 15:22:00
11:41 AM,17.6,8.6,68,29.81,1.8,West,9.2,-,0.01,Snow,Light Snow,280,2013-03-17 15:41:00
11:54 AM,18.0,10.0,71,29.86,1.5,West,9.2,18.4,0.01,Snow,Light Snow,270,2013-03-17 15:54:00
12:05 PM,17.6,8.6,68,29.81,3.0,West,8.1,23.0,0.00,,Overcast,280,2013-03-17 16:05:00
12:18 PM,17.6,8.6,68,29.81,1.0,NW,17.3,21.9,0.00,Snow,Light Snow,320,2013-03-17 16:18:00
12:25 PM,15.8,10.4,79,29.82,0.2,NNW,10.4,21.9,0.00,Snow,Heavy Snow,340,2013-03-17 16:25:00
12:36 PM,15.8,8.6,73,29.82,1.5,NNW,13.8,-,0.00,Snow,Light Snow,330,2013-03-17 16:36:00
12:44 PM,15.8,8.6,73,29.82,2.0,NNW,13.8,-,0.00,Snow,Light Snow,340,2013-03-17 16:44:00
12:54 PM,16.0,6.1,65,29.88,8.0,NW,10.4,-,0.00,Snow,Light Snow,320,2013-03-17 16:54:00
1:01 PM,17.6,6.8,63,29.83,10.0,NW,10.4,-,N/A,,Overcast,310,2013-03-17 17:01:00
1:28 PM,15.8,6.8,68,29.84,0.8,NW,20.7,26.5,0.00,Snow,Light Snow,310,2013-03-17 17:28:00
1:35 PM,12.2,8.6,85,29.85,0.2,NW,23.0,28.8,0.00,Snow,Heavy Snow,320,2013-03-17 17:35:00
1:54 PM,14.0,8.1,77,29.91,0.5,NW,17.3,28.8,0.00,Snow,Snow,320,2013-03-17 17:54:00
2:03 PM,15.8,5.0,62,29.86,1.8,NW,16.1,21.9,0.00,Snow,Light Snow,310,2013-03-17 18:03:00
2:05 PM,15.8,6.8,68,29.86,4.0,NW,18.4,23.0,0.00,Snow,Light Snow,320,2013-03-17 18:05:00
2:11 PM,15.8,6.8,68,29.86,1.8,NW,18.4,25.3,0.00,Snow,Light Snow,320,2013-03-17 18:11:00
2:15 PM,15.8,6.8,68,29.87,0.8,NW,21.9,26.5,0.00,Snow,Light Snow,310,2013-03-17 18:15:00
2:26 PM,15.8,3.2,58,29.87,1.5,NW,16.1,26.5,0.00,Snow,Light Snow,310,2013-03-17 18:26:00
2:28 PM,15.8,3.2,58,29.87,4.0,NW,17.3,26.5,0.00,,Mostly Cloudy,310,2013-03-17 18:28:00
2:36 PM,14.0,5.0,67,29.88,1.0,NW,23.0,28.8,0.00,Snow,Light Snow,320,2013-03-17 18:36:00
2:43 PM,12.2,6.8,79,29.88,0.2,NW,16.1,29.9,0.00,Snow,Heavy Snow,310,2013-03-17 18:43:00
2:50 PM,14.0,3.2,62,29.88,2.5,NW,16.1,25.3,0.00,Snow,Light Snow,310,2013-03-17 18:50:00
2:54 PM,14.0,5.0,67,29.94,2.5,NW,15.0,25.3,0.00,Snow,Light Snow,320,2013-03-17 18:54:00
3:08 PM,15.8,-0.4,49,29.89,7.0,NW,21.9,31.1,0.00,,Mostly Cloudy,310,2013-03-17 19:08:00
3:54 PM,15.1,-0.9,49,29.95,10.0,NW,16.1,29.9,0.00,,Overcast,320,2013-03-17 19:54:00
4:54 PM,15.1,-2.0,47,29.98,10.0,NW,20.7,26.5,N/A,,Overcast,310,2013-03-17 20:54:00
5:54 PM,12.9,-5.1,45,30.02,10.0,NW,19.6,26.5,N/A,,Mostly Cloudy,320,2013-03-17 21:54:00
6:54 PM,10.9,-6.0,47,30.06,10.0,NW,13.8,-,N/A,,Clear,320,2013-03-17 22:54:00
7:54 PM,10.0,-7.1,46,30.11,10.0,NW,18.4,28.8,N/A,,Clear,320,2013-03-17 23:54:00
8:54 PM,8.1,-8.0,48,30.14,10.0,NW,13.8,21.9,N/A,,Clear,320,2013-03-18 00:54:00
9:54 PM,7.0,-9.0,48,30.17,10.0,NW,13.8,21.9,N/A,,Clear,310,2013-03-18 01:54:00
10:54 PM,6.1,-9.9,48,30.19,10.0,WNW,9.2,19.6,N/A,,Clear,300,2013-03-18 02:54:00
11:54 PM,6.1,-11.0,45,30.19,10.0,WNW,13.8,21.9,N/A,,Clear,300,2013-03-18 03:54:00